Location: Newark
(7.0858°N, 171.3717°E)
Time: 04:24:52
(UTC+00:00)

Vanguard 2 - Pass Details

Date: 27 November 2020
Orbit: 553 x 2937 km, 32.9° (Epoch: 26 January)

Event Time Altitude Azimuth Distance (km) Brightness Sun altitude
Rises 17:19:50 0° 219° (SW) 6,540 12.1 -17.1°
Reaches altitude 10° 17:25:14 10° 211° (SSW) 5,259 11.7 -15.8°
Maximum altitude 17:37:42 34° 153° (SSE) 2,841 10.9 -12.9°
Drops below altitude 10° 17:46:00 10° 91° (E) 3,505 12.2 -11.0°
Sets 17:48:47 0° 81° (E) 4,181 12.5 -10.4°
